Weather in Korolenko

Russia / Udmurt Republic     56°25′17″N   51°46′23″E
temp.,
°C
wind,
m/s
gust,
m/s
humid.,
%
clouds,
%
prec.,
mm/h
press.,
hPa
HPBL,
m
24 june, thu
thu2401:00+19ene119170 0.0 101912
04:00+18ese229612 0.0 102044
07:00+22sse238249 0.0 1019279
10:00+26ssw226122 0.0 1019886
13:00+29wnw23516 0.9 10181587
16:00+30w244465 1.1 10162079
19:00+28w385819 0.0 1016420
22:00+23wnw257594 0.1 101588
25 june, fri
fri2501:00+17ssw2293100 2.1 101530
04:00+18wsw2997100 3.2 1015184
07:00+22nw278798 0.0 1014210
10:00+28nw455757 0.0 1013686
13:00+32nw35374 0.0 10132263
16:00+33wnw453763 0.0 10122340
19:00+28wnw485823 0.0 1011475
22:00+25nw613721 0.1 1012623
26 june, sat
sat2601:00+17sw22936 1.1 101219
04:00+16w22945 1.1 101327
07:00+19nw25865 0.0 1012234
10:00+26nnw356119 0.0 1012720
13:00+29nnw464618 0.0 10121727
16:00+30n464230 0.0 10112435
19:00+26n26628 0.0 1011234
22:00+21nw22785 0.0 101214
27 june, sun
sun2701:00+20nw118514 0.0 101311
04:00+19w22875 0.0 101316
07:00+24wsw12685 0.0 1013157
10:00+28w34535 0.0 1013995
13:00+31w344418 0.0 10132139
16:00+29w255489 0.0 1012252
19:00+24wnw497475 0.2 1013338
22:00+20sw1188100 0.9 101311
28 june, mon
mon2801:00+19wsw118966 0.0 101311
04:00+18sse119128 0.0 101311
07:00+22s11785 0.0 1014148
10:00+28ssw22565 0.0 1014737
13:00+31ssw23465 0.0 10131915
16:00+27wsw236159 0.1 101396
19:00+27e127351 0.6 1013134
22:00+22sw12865 1.0 101211